Location: *
(10.4667°N, 8.6500°W)
Time: 13:49:54
(UTC+00:00)

Daily predictions for brighter satellites

Satellite Brightness Start Highest point End
(mag) Time Altitude Azimuth Time Altitude Azimuth Time Altitude Azimuth
Cosmos 1470 Rocket 3.8 19:05:06 10° S 19:09:32 80° W 19:14:00 10° N
SL-4 R/B 4.0 19:06:33 10° WNW 19:10:57 35° SW 19:15:17 10° S
Ariane Rocket 4.1 19:09:34 10° SE 19:13:37 24° ENE 19:17:39 10° NNE
Cosmos 1782 3.8 19:16:24 10° NNW 19:20:13 50° W 19:24:03 10° S
Cosmos 1939 Rocket 4.1 19:20:12 10° SE 19:23:33 24° ENE 19:26:51 10° NNE
GPS 2-12 Rocket1 4.2 19:21:10 10° SW 19:25:18 28° SSE 19:28:48 13° ESE
NOSS 3-2 (A) 4.3 19:17:27 10° NNW 19:25:42 65° ENE 19:34:11 10° SSE
Cosmos 1862 Rocket 3.9 19:21:56 10° NNE 19:26:12 44° E 19:30:28 10° SSE
CZ-4 R/B 2.1 19:23:27 10° S 19:27:26 57° W 19:31:20 10° NNW
GPS 2-15 Rocket1 3.2 19:23:13 10° WNW 19:28:09 87° NNE 19:32:23 14° ESE
Cosmos 1400 Rocket 3.0 19:27:27 10° N 19:31:10 46° E 19:34:52 10° SSE
CSL-04 Rocket 3.7 19:27:24 10° S 19:32:40 81° WSW 19:37:57 10° NNW
ADEOS Rocket 4.2 19:32:57 10° NE 19:38:15 25° ESE 19:43:54 10° SSE
TRAILBLAZER 4.5 19:36:16 10° NNW 19:40:46 73° ENE 19:45:04 11° SSE
Maqsat-H 4.1 19:37:01 10° SSW 19:41:10 24° SSE 19:46:47 16° ESE
FREGAT/IRIS 4.4 19:47:16 16° NE 19:47:16 16° NE 19:48:16 10° NNE
CENTAUR R/B 3.7 19:40:51 10° N 19:48:51 41° ENE 19:54:25 20° ESE
MONITOR-E 3.8 19:56:10 51° SE 19:56:37 61° E 19:59:23 10° N
Cosmos 1812 2.6 19:53:10 10° N 19:56:59 67° E 19:59:48 17° SSE
ARIANE 5 DEB (SYLDA) 4.1 19:55:24 10° SW 19:57:27 15° SSW 19:57:44 15° S
PAYLOAD A 3.2 19:53:25 10° W 19:57:35 56° S 19:58:58 33° ESE
Cosmos 1943 Rocket 2.1 19:53:56 10° N 19:59:31 73° ENE 20:04:06 16° SSE
Meteor 1-27 Rocket 3.7 19:56:06 10° N 20:01:51 87° W 20:07:29 10° S
Palapa 6 Rocket 2.8 19:58:16 10° WNW 20:02:02 57° NNE 20:02:58 42° ENE
Cosmos 2242 Rocket 3.7 20:01:56 10° N 20:06:25 79° W 20:10:51 10° S
Dummy Sat-01 4.5 20:06:05 21° S 20:08:30 76° E 20:12:17 10° N
Meteor 2-13 Rocket 4.4 20:02:28 10° N 20:08:35 67° E 20:14:26 11° SSE
Cosmos 1315 Rocket 2.9 20:07:02 10° N 20:11:05 57° E 20:11:29 54° ESE
Okean 1-7 3.8 20:08:30 10° NNE 20:11:42 35° ENE 20:11:42 35° ENE
Cosmos 220 Rocket 4.4 20:15:43 10° N 20:19:00 43° NE 20:19:00 43° NE
ATLAS 3B R/B 2.6 20:18:43 10° NNW 20:25:35 80° ENE 20:28:41 37° SSE
SEDSat Delta rocket 4.1 20:25:52 10° SW 20:29:11 37° S 20:29:11 37° S
BREEZE M DEB (TANK) 3.5 20:32:09 10° NW 20:35:20 73° SW 20:39:28 34° SE
GPS 2-04 Rocket1 3.5 20:34:52 10° NW 20:37:58 51° WNW 20:37:58 51° WNW
H-2A R/B 3.5 20:42:44 24° NNE 20:42:44 24° NNE 20:44:51 10° N
Atlas Centaur 2 1.9 20:38:57 10° WNW 20:42:55 69° NW 20:42:55 69° NW
Cosmos 1703 Rocket 4.3 20:42:02 10° NNW 20:46:17 49° W 20:46:21 49° W
Cosmos 2369 Rocket 3.4 20:41:56 10° NW 20:47:03 37° WSW 20:50:12 20° SSW
ARIANE 5 DEB (SYLDA) 4.4 20:05:20 10° W 20:47:38 51° SSW 20:50:06 42° SSE
COSMOS 2406 4.4 21:02:44 10° SW 21:07:58 39° WNW 21:13:14 10° N
CZ-3C R/B 4.1 21:03:23 10° W 21:11:02 49° S 21:15:52 42° SSE
CENTAUR R/B 4.5 21:31:58 10° NW 21:39:25 32° WSW 21:41:41 28° SW
